Wind_Speed
22 20 20 21 20 22 20 20 20 22 23 23 25 29 32 35 37 40 43 42 43 45 46 44 43 43 42 41 43 43 43 41
21 20 22 19 21 21 20 20 21 24 25 25 27 29 31 35 39 41 41 42 44 45 45 43 43 43 43 44 42 41 42 44
18 21 21 20 22 21 22 22 22 24 26 26 28 30 32 37 39 40 40 43 45 46 44 42 43 45 43 40 41 45 45 43
21 19 20 20 24 23 23 23 24 24 26 27 28 31 34 37 39 39 42 44 45 45 43 45 46 44 40 41 45 44 44 44
22 21 19 21 25 23 21 22 25 27 28 28 30 32 34 38 38 39 42 43 43 43 46 46 45 45 46 48 45 42 41 40
24 21 20 24 26 23 20 24 26 28 31 30 30 32 37 39 37 39 41 41 43 45 46 46 48 49 47 43 37 36 39 41
24 22 23 26 27 22 21 26 26 28 30 28 30 33 37 35 37 37 40 44 45 45 46 49 47 41 36 34 38 41 41 41
24 23 24 26 25 22 23 24 26 28 28 26 27 32 34 34 36 40 43 44 43 46 46 44 38 33 36 38 39 34 30 27
22 26 24 24 24 21 23 24 25 27 25 24 27 32 33 34 37 41 42 42 44 44 43 35 34 37 37 35 30 25 19 16
17 19 21 23 23 20 23 24 24 26 25 23 26 31 32 33 37 40 39 40 42 42 35 34 36 36 34 29 24 19 15 14
21 20 25 26 19 18 22 24 26 28 26 23 26 31 31 31 35 36 38 41 41 36 33 35 34 33 30 27 19 16 15 13
18 24 24 24 16 19 21 24 27 29 25 22 25 29 30 30 34 34 38 39 39 32 31 32 33 31 27 21 13 15 16 11
17 20 23 24 14 17 20 24 28 25 22 22 26 28 28 29 32 33 37 38 35 30 31 31 31 27 23 16 11 12 12 8
21 19 24 27 13 22 18 19 17 19 20 23 28 28 25 27 31 32 35 38 32 28 30 28 29 26 21 15 13 10 8 6
19 24 29 27 18 20 20 16 15 17 20 23 24 25 21 26 29 31 34 36 29 27 29 25 26 27 22 17 16 18 16 10
26 20 30 25 21 23 20 16 15 16 17 19 21 23 19 25 27 30 32 33 25 25 27 22 22 21 19 20 17 15 16 11
27 22 30 27 28 24 22 17 13 13 17 22 23 21 17 23 25 28 30 31 22 23 26 20 20 20 20 22 23 18 22 23
29 25 32 33 29 25 23 16 10 9 14 18 19 18 16 21 24 27 27 28 19 20 23 19 17 19 20 20 26 24 21 31
30 29 30 35 33 26 24 18 12 11 13 16 21 18 14 19 22 25 24 25 16 18 21 18 15 19 17 17 18 19 21 27
32 31 29 34 33 26 23 18 20 16 14 17 20 15 12 17 19 22 22 23 14 16 19 17 13 11 20 27 22 23 25 28
Wind_Direction
312 302 298 301 309 304 299 304 309 310 313 315 310 309 311 311 315 322 318 314 317 314 311 304 302 302 300 297 294 292 289 284
309 304 300 310 311 298 299 304 310 310 311 308 309 310 308 311 323 321 316 318 317 311 308 304 306 304 299 297 295 290 285 281
297 304 305 308 301 299 301 305 308 310 310 313 312 308 312 321 323 317 319 318 313 311 309 311 308 305 303 299 298 294 289 285
289 291 298 302 299 297 302 305 305 311 315 316 314 315 321 323 321 322 320 317 313 310 314 313 311 307 304 299 298 293 290 287
291 292 293 293 291 293 299 307 311 316 319 317 318 321 323 323 324 323 319 314 312 317 318 316 312 309 306 304 301 296 292 289
288 293 293 289 288 294 306 309 314 320 319 323 321 325 327 328 326 321 317 316 319 322 319 316 313 310 308 304 301 297 293 287
290 298 296 288 288 301 309 312 318 321 321 324 326 329 328 325 321 323 323 324 326 323 319 315 314 313 309 305 302 300 295 286
285 294 291 284 295 308 312 313 320 319 324 323 327 325 326 326 327 330 329 328 325 322 318 318 318 316 310 306 307 302 299 293
296 298 286 286 298 309 310 317 318 320 317 322 325 326 328 330 334 331 331 328 324 323 323 326 321 316 315 316 311 314 311 303
286 289 286 293 302 311 312 317 317 316 314 321 328 328 330 334 331 332 332 329 327 329 332 329 327 326 324 322 323 317 309 310
283 286 279 286 299 311 311 315 314 315 310 321 328 328 330 331 330 332 332 334 333 336 335 336 335 336 332 336 333 335 328 329
283 276 273 284 300 310 306 312 315 311 310 315 323 328 328 329 332 334 336 337 339 340 340 345 343 341 344 345 342 339 341 352
268 278 282 284 302 291 302 307 312 300 302 310 318 326 326 330 335 335 339 340 345 343 348 351 351 354 359 9 4 347 347 5
272 276 276 277 283 285 290 305 304 302 304 308 320 325 327 332 336 336 342 343 347 348 352 354 0 6 4 13 19 11 359 16
256 266 271 273 287 286 288 299 312 305 304 311 317 324 329 336 336 340 343 344 348 352 352 355 358 6 13 26 29 31 37 46
255 262 270 279 284 283 290 294 311 300 307 315 324 327 335 338 337 342 344 346 349 359 354 358 3 7 22 24 20 21 29 44
262 269 273 272 283 285 300 304 311 302 313 315 320 330 340 338 340 344 346 348 350 6 1 6 7 20 34 31 51 64 57 53
262 266 270 270 279 286 296 313 313 301 307 317 319 330 343 338 344 344 347 349 352 12 5 15 28 36 50 62 57 63 68 66
264 263 269 276 278 282 287 320 311 276 286 309 312 329 343 339 347 343 350 349 354 16 10 20 46 51 48 49 57 67 65 73
260 266 270 268 276 272 285 315 312 297 286 298 304 324 342 341 349 340 353 348 357 25 17 30 50 62 64 72 75 73 67 76
Height
5879 5877 5876 5874 5872 5870 5867 5864 5861 5858 5855 5850 5847 5844 5839 5835 5832 5829 5824 5820 5814 5808 5802 5798 5794 5789 5784 5781 5778 5775 5774 5774
5876 5874 5872 5872 5870 5868 5863 5860 5857 5855 5851 5848 5845 5841 5836 5832 5828 5823 5818 5812 5806 5801 5796 5791 5787 5782 5778 5773 5769 5767 5765 5764
5874 5872 5870 5868 5867 5863 5859 5856 5853 5851 5847 5844 5841 5837 5832 5828 5822 5818 5812 5806 5800 5794 5788 5783 5779 5774 5769 5764 5760 5755 5753 5751
5869 5868 5866 5865 5863 5860 5857 5853 5849 5846 5843 5840 5836 5832 5828 5824 5819 5812 5806 5800 5794 5787 5781 5776 5770 5764 5759 5755 5750 5746 5743 5740
5865 5865 5863 5861 5859 5855 5852 5849 5845 5841 5839 5835 5831 5827 5824 5820 5814 5808 5802 5795 5788 5780 5773 5767 5761 5754 5749 5743 5739 5736 5731 5729
5861 5860 5859 5856 5855 5851 5848 5844 5840 5837 5834 5831 5828 5824 5819 5814 5808 5803 5797 5790 5782 5773 5766 5760 5753 5745 5738 5733 5729 5725 5722 5718
5858 5857 5855 5852 5850 5847 5844 5840 5836 5834 5831 5827 5824 5819 5815 5811 5805 5798 5791 5784 5775 5767 5760 5753 5745 5736 5730 5725 5720 5715 5710 5706
5853 5852 5852 5849 5846 5844 5841 5838 5835 5830 5827 5823 5820 5817 5813 5807 5801 5791 5784 5778 5770 5763 5755 5746 5737 5730 5723 5717 5710 5705 5699 5695
5852 5850 5848 5845 5843 5841 5838 5835 5833 5828 5824 5820 5817 5813 5808 5802 5794 5787 5781 5774 5767 5758 5748 5739 5731 5723 5716 5709 5702 5696 5692 5689
5848 5846 5844 5843 5840 5838 5834 5831 5829 5824 5819 5817 5814 5809 5803 5798 5791 5784 5779 5772 5763 5753 5743 5735 5727 5719 5709 5702 5696 5692 5688 5686
5844 5842 5840 5839 5835 5833 5829 5826 5824 5821 5816 5814 5810 5805 5801 5796 5789 5783 5776 5768 5759 5749 5740 5732 5723 5714 5705 5697 5693 5690 5687 5683
5840 5838 5836 5833 5830 5827 5826 5823 5820 5817 5812 5811 5808 5804 5799 5793 5787 5780 5773 5765 5755 5746 5738 5731 5721 5713 5704 5696 5692 5690 5686 5683
5835 5834 5831 5828 5829 5824 5823 5821 5818 5813 5810 5809 5806 5801 5796 5791 5783 5778 5771 5763 5752 5744 5737 5730 5722 5713 5705 5698 5694 5690 5686 5684
5832 5830 5827 5825 5827 5822 5822 5820 5816 5812 5809 5807 5803 5798 5794 5788 5782 5776 5769 5761 5750 5744 5737 5731 5723 5715 5707 5701 5696 5691 5688 5685
5827 5826 5822 5821 5824 5819 5819 5817 5814 5810 5806 5804 5801 5796 5791 5786 5781 5774 5768 5760 5750 5744 5738 5732 5725 5718 5710 5704 5698 5694 5690 5687
5821 5823 5819 5819 5820 5817 5816 5813 5811 5808 5805 5802 5799 5794 5789 5784 5779 5773 5768 5759 5751 5746 5739 5733 5727 5720 5714 5708 5703 5699 5694 5690
5816 5817 5814 5815 5814 5815 5813 5811 5807 5804 5803 5800 5797 5792 5787 5783 5778 5772 5767 5759 5752 5748 5742 5735 5729 5723 5717 5712 5706 5702 5698 5693
5812 5813 5809 5809 5810 5811 5809 5809 5805 5802 5800 5797 5794 5790 5786 5782 5777 5771 5766 5760 5753 5750 5744 5738 5733 5727 5721 5717 5713 5709 5705 5701
5808 5807 5805 5804 5804 5807 5806 5804 5803 5799 5797 5794 5792 5788 5784 5781 5776 5771 5766 5760 5755 5751 5747 5741 5736 5732 5726 5721 5718 5716 5712 5710
5801 5801 5802 5799 5799 5803 5803 5801 5798 5796 5794 5791 5789 5786 5783 5780 5775 5771 5766 5761 5756 5753 5749 5744 5740 5736 5731 5728 5725 5724 5722 5719